This demonstration page uses our WeatherBlox Daily Observations layout. Learn more.

Left ArrowRight Arrow

Hourly Observations for October 5, 2021

Temp ( °F °C ) Dew Point ( °F °C ) Humidity (%) Winds ( mph kmh ) Pressure ( in mb ) Visibility ( mi km ) Precip ( " mm )
12:53 am 00:53 Cloudy with Light Rain 68 20 67 19.4 96 96 Calm 30.01 1016 6 10 0.00 0.00
1:22 am 01:22 Cloudy with Light Rain 69 20.6 67 19.4 93 93 Calm 30.02 1016 10 16 0.00 0.00
1:53 am 01:53 Cloudy 68 20 67 19.4 96 96 Calm 30.01 1016 10 16 0.00 0.00
2:12 am 02:12 Cloudy 68 20 67 19.4 96 96 Calm 30.02 1017 10 16 0.00 0.00
2:53 am 02:53 Cloudy with Light Rain 68 20 67 19.4 96 96 Calm 30.00 1016 10 16 0.00 0.00
3:02 am 03:02 Cloudy with Light Rain 68 20 67 19.4 96 96 SW 3 6 30.01 1016 10 16 0.00 0.00
3:53 am 03:53 Cloudy with Light Rain 68 20 68 20 100 100 Calm 30.00 1016 10 16 0.00 0.00
4:26 am 04:26 Cloudy with Light Rain 68 20 67 19.4 96 96 SSE 5 7 30.00 1016 10 16 0.00 0.00
4:53 am 04:53 Cloudy with Rain 68 20 67 19.4 96 96 VRB 5 7 30.00 1016 6 10 0.00 0.00
5:53 am 05:53 Cloudy with Rain 67 19.4 66 18.9 97 97 Calm 29.99 1016 7 11 0.00 0.00
6:53 am 06:53 Cloudy with Light Rain 67 19.4 66 18.9 97 97 NE 5 7 30.02 1017 10 16 0.00 0.00
7:53 am 07:53 Mostly Cloudy with Light Rain 67 19.4 66 18.9 97 97 E 7 11 30.03 1017 10 16 0.00 0.00
8:49 am 08:49 Cloudy with Rain 66 19 66 19 100 100 E 3 6 30.06 1018 5 8 0.00 0.00
8:53 am 08:53 Cloudy with Rain 67 19.4 66 18.9 97 97 E 5 7 30.07 1018 6 10 0.00 0.00
9:53 am 09:53 Cloudy with Light Rain 66 18.9 65 18.3 96 96 E 8 13 30.06 1018 10 16 0.00 0.00
10:53 am 10:53 Mostly Cloudy with Light Rain 67 19.4 66 18.9 97 97 ENE 5 7 30.07 1018 5 8 0.02 0.51
11:53 am 11:53 Cloudy with Light Rain 68 20 65 18.3 90 90 NE 7 11 30.09 1019 10 16 0.02 0.51
12:53 pm 12:53 Cloudy with Light Rain 68 20 66 18.9 93 93 E 10 17 30.08 1019 10 16 0.01 0.25
12:55 pm 12:55 Cloudy 68 20 66 18.9 93 93 E 9 15 30.08 1019 10 16 0.00 0.00
1:33 pm 13:33 Partly Cloudy with Light Rain 69 20.6 65 18.3 87 87 ENE 7 11 30.08 1018 10 16 0.00 0.00
1:53 pm 13:53 Partly Cloudy with Light Rain 69 20.6 65 18.3 87 87 ENE 8 13 30.06 1018 10 16 0.00 0.00
2:03 pm 14:03 Mostly Cloudy with Light Rain 69 20.6 65 18.3 87 87 ENE 7 11 30.05 1017 10 16 0.00 0.00
2:53 pm 14:53 Mostly Cloudy with Light Rain 71 21.7 64 17.8 79 79 E 8 13 30.04 1017 10 16 0.00 0.00
3:00 pm 15:00 Mostly Sunny 72 22.2 64 17.8 76 76 E 10 17 30.03 1017 10 16 0.00 0.00
3:53 pm 15:53 Cloudy with Light Rain 71 21.7 65 18.3 81 81 E 6 9 30.03 1017 10 16 0.00 0.00
4:53 pm 16:53 Cloudy with Light Rain 70 21.1 65 18.3 84 84 E 7 11 30.04 1017 10 16 0.00 0.00
5:27 pm 17:27 Cloudy with Light Rain 70 21.1 66 18.9 87 87 E 6 9 30.02 1017 10 16 0.00 0.00
5:39 pm 17:39 Cloudy 71 21.7 66 18.9 84 84 VRB 6 9 30.02 1017 10 16 0.00 0.00
5:53 pm 17:53 Mostly Cloudy with Light Rain 71 21.7 66 18.9 84 84 E 9 15 30.02 1017 10 16 0.00 0.00
6:13 pm 18:13 Partly Cloudy with Light Rain 71 21.7 66 18.9 84 84 E 6 9 30.02 1017 10 16 0.00 0.00
6:53 pm 18:53 Mostly Cloudy 71 21.7 66 18.9 84 84 ENE 3 6 30.04 1017 10 16 0.00 0.00
7:06 pm 19:06 Cloudy 71 21.7 66 18.9 84 84 E 3 6 30.04 1017 10 16 0.00 0.00
7:35 pm 19:35 Cloudy 70 21.1 66 18.9 87 87 E 5 7 30.05 1018 10 16 0.00 0.00
7:53 pm 19:53 Cloudy 70 21.1 66 18.9 87 87 E 3 6 30.06 1018 10 16 0.00 0.00
8:53 pm 20:53 Cloudy with Light Rain 70 21.1 67 19.4 90 90 ESE 5 7 30.07 1018 10 16 0.00 0.00
9:43 pm 21:43 Cloudy 69 20.6 67 19.4 93 93 E 6 9 30.08 1018 10 16 0.02 0.51
9:53 pm 21:53 Cloudy 69 20.6 67 19.4 93 93 E 5 7 30.08 1019 10 16 0.02 0.51
10:53 pm 22:53 Cloudy 70 21.1 68 20 93 93 E 5 7 30.08 1019 10 16 0.00 0.00
11:38 pm 23:38 Mostly Cloudy 70 21.1 68 20 93 93 E 6 9 30.06 1018 10 16 0.00 0.00
11:45 pm 23:45 Mostly Cloudy 70 21.1 68 20 93 93 E 7 11 30.06 1018 10 16 0.00 0.00
11:53 pm 23:53 Mostly Cloudy 70 21.1 68 20 93 93 E 7 11 30.07 1018 10 16 0.00 0.00

Powered by AerisWeather